Time,TemperatureF,DewpointF,PressureIn,WindDirection,WindDirectionDegrees,WindSpeedMPH,WindSpeedGustMPH,Humidity,HourlyPrecipIn,Conditions,Clouds,dailyrainin,SoftwareType,DateUTC
2013-04-20 00:03:00,60.0,58.0,-100.00,North,5,5.0,14.0,93,0.86,,,-99.99,,2013-04-20 04:03:00,
2013-04-20 00:12:00,60.0,58.0,-100.00,North,350,5.0,14.0,94,0.71,,,-99.99,,2013-04-20 04:12:00,
2013-04-20 00:23:00,60.0,58.0,-100.00,North,-999,-999.0,-999.0,94,-99.99,,,-99.99,,2013-04-20 04:23:00,
2013-04-20 00:33:00,59.0,57.0,-100.00,East,95,0.0,3.0,94,0.01,,,-99.99,,2013-04-20 04:33:00,
2013-04-20 00:42:00,58.0,57.0,-100.00,SSW,210,0.0,2.0,95,0.00,,,-99.99,,2013-04-20 04:42:00,
2013-04-20 00:52:00,58.0,57.0,-100.00,SE,130,1.0,2.0,95,0.03,,,-99.99,,2013-04-20 04:52:00,
2013-04-20 01:02:00,58.0,57.0,-100.00,South,190,0.0,1.0,96,0.00,,,-99.99,,2013-04-20 05:02:00,
2013-04-20 01:12:00,58.0,57.0,-100.00,NNW,335,2.0,8.0,96,0.00,,,-99.99,,2013-04-20 05:12:00,
2013-04-20 01:22:00,58.0,57.0,-100.00,NE,50,1.0,8.0,96,0.00,,,-99.99,,2013-04-20 05:22:00,
2013-04-20 01:32:00,57.0,56.0,-100.00,NNW,340,5.0,11.0,95,0.00,,,-99.99,,2013-04-20 05:32:00,
2013-04-20 01:43:00,56.0,55.0,-100.00,NW,310,2.0,11.0,95,0.16,,,-99.99,,2013-04-20 05:43:00,
2013-04-20 01:51:00,55.0,54.0,-100.00,NW,325,3.0,6.0,95,0.01,,,-99.99,,2013-04-20 05:51:00,
2013-04-20 02:02:00,55.0,54.0,-100.00,NNW,340,7.0,11.0,96,0.03,,,-99.99,,2013-04-20 06:02:00,
2013-04-20 02:12:00,53.0,52.0,-100.00,NNW,345,10.0,16.0,95,0.11,,,-99.99,,2013-04-20 06:12:00,
2013-04-20 02:21:00,53.0,51.0,-100.00,NNW,335,9.0,16.0,95,0.03,,,-99.99,,2013-04-20 06:21:00,
2013-04-20 02:32:00,52.0,51.0,-100.00,NNW,340,6.0,14.0,95,0.01,,,-99.99,,2013-04-20 06:32:00,
2013-04-20 02:42:00,51.0,50.0,-100.00,NNW,340,6.0,11.0,95,0.03,,,-99.99,,2013-04-20 06:42:00,
2013-04-20 02:52:00,51.0,49.0,-100.00,NNW,345,6.0,11.0,94,0.04,,,-99.99,,2013-04-20 06:52:00,
2013-04-20 03:01:00,50.0,49.0,-100.00,NW,320,4.0,10.0,94,0.01,,,-99.99,,2013-04-20 07:01:00,
2013-04-20 03:11:00,49.0,47.0,-100.00,NNW,340,7.0,13.0,93,0.01,,,-99.99,,2013-04-20 07:11:00,
2013-04-20 03:21:00,48.0,47.0,-100.00,North,355,6.0,13.0,93,0.01,,,-99.99,,2013-04-20 07:21:00,
2013-04-20 03:32:00,47.0,45.0,-100.00,NNW,340,9.0,14.0,93,0.03,,,-99.99,,2013-04-20 07:32:00,
2013-04-20 03:42:00,47.0,45.0,-100.00,NNW,340,6.0,14.0,93,0.06,,,-99.99,,2013-04-20 07:42:00,
2013-04-20 03:52:00,46.0,45.0,-100.00,NNW,340,7.0,12.0,93,0.01,,,-99.99,,2013-04-20 07:52:00,
2013-04-20 04:02:00,46.0,44.0,-100.00,NNW,345,6.0,11.0,93,0.04,,,-99.99,,2013-04-20 08:02:00,
2013-04-20 04:11:00,46.0,44.0,-100.00,North,350,6.0,9.0,93,0.01,,,-99.99,,2013-04-20 08:11:00,
2013-04-20 04:21:00,45.0,43.0,-100.00,NNW,340,7.0,11.0,93,0.01,,,-99.99,,2013-04-20 08:21:00,
2013-04-20 04:32:00,45.0,43.0,-100.00,NNW,345,7.0,11.0,93,0.03,,,-99.99,,2013-04-20 08:32:00,
2013-04-20 04:42:00,43.0,41.0,-100.00,NNW,340,9.0,15.0,91,0.16,,,-99.99,,2013-04-20 08:42:00,
2013-04-20 04:52:00,42.0,40.0,-100.00,NNW,340,6.0,12.0,91,0.17,,,-99.99,,2013-04-20 08:52:00,
2013-04-20 05:02:00,42.0,40.0,-100.00,NNW,345,7.0,12.0,91,0.08,,,-99.99,,2013-04-20 09:02:00,
2013-04-20 05:12:00,41.0,39.0,-100.00,NNW,345,4.0,9.0,92,0.18,,,-99.99,,2013-04-20 09:12:00,
2013-04-20 05:21:00,41.0,39.0,-100.00,North,5,2.0,6.0,92,0.11,,,-99.99,,2013-04-20 09:21:00,
2013-04-20 05:33:00,41.0,39.0,-100.00,North,350,5.0,9.0,93,0.06,,,-99.99,,2013-04-20 09:33:00,
2013-04-20 05:43:00,40.0,39.0,-100.00,NNW,340,5.0,7.0,93,0.16,,,-99.99,,2013-04-20 09:43:00,
2013-04-20 05:53:00,40.0,39.0,-100.00,NNW,345,4.0,7.0,94,0.03,,,-99.99,,2013-04-20 09:53:00,
2013-04-20 06:03:00,40.0,38.0,-100.00,NNW,335,7.0,10.0,94,0.00,,,-99.99,,2013-04-20 10:03:00,
2013-04-20 06:13:00,40.0,39.0,-100.00,NNW,340,4.0,7.0,94,0.00,,,-99.99,,2013-04-20 10:13:00,
2013-04-20 06:23:00,40.0,39.0,-100.00,NNW,345,3.0,6.0,94,0.00,,,-99.99,,2013-04-20 10:23:00,
2013-04-20 06:33:00,40.0,39.0,-100.00,North,350,4.0,6.0,94,0.03,,,-99.99,,2013-04-20 10:33:00,
2013-04-20 06:42:00,40.0,38.0,-100.00,NNW,345,4.0,8.0,95,0.03,,,-99.99,,2013-04-20 10:42:00,
2013-04-20 06:52:00,40.0,38.0,-100.00,NNE,25,3.0,7.0,95,0.03,,,-99.99,,2013-04-20 10:52:00,
2013-04-20 07:02:00,39.0,38.0,-100.00,NW,325,5.0,8.0,95,0.01,,,-99.99,,2013-04-20 11:02:00,
2013-04-20 07:12:00,39.0,38.0,-100.00,NNW,335,6.0,10.0,94,0.00,,,-99.99,,2013-04-20 11:12:00,
2013-04-20 07:23:00,39.0,38.0,-100.00,NNW,345,7.0,12.0,94,0.00,,,-99.99,,2013-04-20 11:23:00,
2013-04-20 07:32:00,39.0,38.0,-100.00,NNW,340,7.0,14.0,94,0.00,,,-99.99,,2013-04-20 11:32:00,
2013-04-20 07:42:00,39.0,38.0,-100.00,NNW,345,9.0,16.0,93,0.00,,,-99.99,,2013-04-20 11:42:00,
2013-04-20 07:52:00,39.0,37.0,-100.00,NNW,340,8.0,15.0,92,0.00,,,-99.99,,2013-04-20 11:52:00,
2013-04-20 08:02:00,40.0,37.0,-100.00,NNW,345,4.0,10.0,92,0.00,,,-99.99,,2013-04-20 12:02:00,
2013-04-20 08:11:00,40.0,37.0,-100.00,NW,310,3.0,10.0,91,0.00,,,-99.99,,2013-04-20 12:11:00,
2013-04-20 08:32:00,41.0,38.0,-100.00,NNW,330,4.0,11.0,89,0.00,,,-99.99,,2013-04-20 12:32:00,
2013-04-20 08:42:00,41.0,38.0,-100.00,NNW,345,7.0,12.0,88,0.00,,,-99.99,,2013-04-20 12:42:00,
2013-04-20 08:52:00,41.0,37.0,-100.00,NW,325,6.0,9.0,86,0.00,,,-99.99,,2013-04-20 12:52:00,
2013-04-20 09:02:00,41.0,37.0,-100.00,NNW,345,5.0,11.0,84,0.00,,,-99.99,,2013-04-20 13:02:00,
2013-04-20 09:11:00,42.0,36.0,-100.00,NNW,340,4.0,12.0,81,0.00,,,-99.99,,2013-04-20 13:11:00,
2013-04-20 09:21:00,42.0,36.0,-100.00,NNW,340,6.0,11.0,79,0.00,,,-99.99,,2013-04-20 13:21:00,
2013-04-20 09:32:00,43.0,36.0,-100.00,NNW,345,4.0,12.0,77,0.00,,,-99.99,,2013-04-20 13:32:00,
2013-04-20 09:42:00,43.0,35.0,-100.00,North,350,7.0,12.0,73,0.00,,,-99.99,,2013-04-20 13:42:00,
2013-04-20 09:52:00,44.0,35.0,-100.00,NW,320,5.0,12.0,73,0.00,,,-99.99,,2013-04-20 13:52:00,
2013-04-20 10:02:00,44.0,35.0,-100.00,NNW,345,7.0,17.0,71,0.00,,,-99.99,,2013-04-20 14:02:00,
2013-04-20 10:11:00,45.0,36.0,-100.00,NNW,345,3.0,9.0,70,0.00,,,-99.99,,2013-04-20 14:11:00,
2013-04-20 10:21:00,45.0,35.0,-100.00,NNW,345,6.0,14.0,67,0.00,,,-99.99,,2013-04-20 14:21:00,
2013-04-20 10:32:00,45.0,34.0,-100.00,NNW,345,10.0,19.0,65,0.00,,,-99.99,,2013-04-20 14:32:00,
2013-04-20 10:42:00,45.0,33.0,-100.00,NW,310,6.0,16.0,63,0.00,,,-99.99,,2013-04-20 14:42:00,
2013-04-20 10:51:00,46.0,33.0,-100.00,North,355,7.0,17.0,59,0.00,,,-99.99,,2013-04-20 14:51:00,
2013-04-20 11:02:00,47.0,33.0,-100.00,NNW,340,6.0,18.0,57,0.00,,,-99.99,,2013-04-20 15:02:00,
2013-04-20 11:11:00,47.0,32.0,-100.00,North,5,6.0,19.0,54,0.00,,,-99.99,,2013-04-20 15:11:00,
2013-04-20 11:21:00,48.0,32.0,-100.00,NNW,345,5.0,14.0,54,0.00,,,-99.99,,2013-04-20 15:21:00,
2013-04-20 11:33:00,48.0,32.0,-100.00,NNW,345,9.0,18.0,53,0.00,,,-99.99,,2013-04-20 15:33:00,
2013-04-20 11:43:00,47.0,28.0,-100.00,North,355,9.0,17.0,46,0.00,,,-99.99,,2013-04-20 15:43:00,
2013-04-20 11:53:00,48.0,29.0,-100.00,NNW,335,7.0,22.0,48,0.00,,,-99.99,,2013-04-20 15:53:00,
2013-04-20 12:03:00,48.0,28.0,-100.00,North,350,4.0,14.0,46,0.00,,,-99.99,,2013-04-20 16:03:00,
2013-04-20 12:12:00,48.0,28.0,-100.00,North,355,6.0,16.0,45,0.00,,,-99.99,,2013-04-20 16:12:00,
2013-04-20 12:23:00,49.0,25.0,-100.00,NNW,335,7.0,14.0,39,0.00,,,-99.99,,2013-04-20 16:23:00,
2013-04-20 12:33:00,49.0,27.0,-100.00,North,0,5.0,17.0,41,0.00,,,-99.99,,2013-04-20 16:33:00,
2013-04-20 12:42:00,49.0,26.0,-100.00,North,350,11.0,19.0,41,0.00,,,-99.99,,2013-04-20 16:42:00,
2013-04-20 12:52:00,48.0,24.0,-100.00,NNW,345,13.0,21.0,38,0.00,,,-99.99,,2013-04-20 16:52:00,
2013-04-20 13:02:00,48.0,26.0,-100.00,NNW,330,9.0,21.0,40,0.00,,,-99.99,,2013-04-20 17:02:00,
2013-04-20 13:12:00,48.0,27.0,-100.00,North,355,5.0,15.0,43,0.00,,,-99.99,,2013-04-20 17:12:00,
2013-04-20 13:23:00,49.0,27.0,-100.00,North,10,4.0,9.0,43,0.00,,,-99.99,,2013-04-20 17:23:00,
2013-04-20 13:33:00,48.0,26.0,-100.00,North,355,6.0,16.0,42,0.00,,,-99.99,,2013-04-20 17:33:00,
2013-04-20 13:42:00,48.0,26.0,-100.00,North,355,6.0,12.0,43,0.00,,,-99.99,,2013-04-20 17:42:00,
2013-04-20 13:52:00,48.0,26.0,-100.00,North,350,7.0,14.0,41,0.00,,,-99.99,,2013-04-20 17:52:00,
2013-04-20 14:02:00,48.0,26.0,-100.00,NNW,345,8.0,14.0,42,0.00,,,-99.99,,2013-04-20 18:02:00,
2013-04-20 14:12:00,49.0,27.0,-100.00,NNW,345,6.0,11.0,42,0.00,,,-99.99,,2013-04-20 18:12:00,
2013-04-20 14:22:00,49.0,26.0,-100.00,North,350,4.0,12.0,40,0.00,,,-99.99,,2013-04-20 18:22:00,
2013-04-20 14:32:00,50.0,26.0,-100.00,North,355,7.0,17.0,39,0.00,,,-99.99,,2013-04-20 18:32:00,
2013-04-20 14:42:00,50.0,27.0,-100.00,North,5,4.0,19.0,39,0.00,,,-99.99,,2013-04-20 18:42:00,
2013-04-20 14:52:00,49.0,26.0,-100.00,North,350,9.0,17.0,39,0.00,,,-99.99,,2013-04-20 18:52:00,
2013-04-20 15:02:00,51.0,26.0,-100.00,North,5,7.0,17.0,37,0.00,,,-99.99,,2013-04-20 19:02:00,
2013-04-20 15:11:00,51.0,26.0,-100.00,North,10,5.0,10.0,37,0.00,,,-99.99,,2013-04-20 19:11:00,
2013-04-20 15:21:00,49.0,26.0,-100.00,North,5,3.0,13.0,39,0.00,,,-99.99,,2013-04-20 19:21:00,
2013-04-20 15:32:00,49.0,26.0,-100.00,NE,50,4.0,10.0,39,0.00,,,-99.99,,2013-04-20 19:32:00,
2013-04-20 15:42:00,52.0,27.0,-100.00,North,0,6.0,14.0,37,0.00,,,-99.99,,2013-04-20 19:42:00,
2013-04-20 15:52:00,51.0,25.0,-100.00,North,5,7.0,12.0,35,0.00,,,-99.99,,2013-04-20 19:52:00,
2013-04-20 16:02:00,51.0,23.0,-100.00,NW,315,6.0,18.0,33,0.00,,,-99.99,,2013-04-20 20:02:00,
2013-04-20 16:12:00,51.0,22.0,-100.00,NNW,340,8.0,18.0,31,0.00,,,-99.99,,2013-04-20 20:12:00,
2013-04-20 16:22:00,52.0,22.0,-100.00,North,350,9.0,21.0,30,0.00,,,-99.99,,2013-04-20 20:22:00,
2013-04-20 16:32:00,51.0,21.0,-100.00,North,350,9.0,17.0,31,0.00,,,-99.99,,2013-04-20 20:32:00,
2013-04-20 16:42:00,50.0,20.0,-100.00,North,0,7.0,20.0,31,0.00,,,-99.99,,2013-04-20 20:42:00,
2013-04-20 16:52:00,51.0,21.0,-100.00,NNW,340,12.0,17.0,30,0.00,,,-99.99,,2013-04-20 20:52:00,
2013-04-20 17:01:00,50.0,21.0,-100.00,NNW,345,5.0,17.0,31,0.00,,,-99.99,,2013-04-20 21:01:00,
2013-04-20 17:12:00,50.0,22.0,-100.00,North,350,7.0,14.0,33,0.00,,,-99.99,,2013-04-20 21:12:00,
2013-04-20 17:22:00,50.0,22.0,-100.00,North,355,5.0,19.0,32,0.00,,,-99.99,,2013-04-20 21:22:00,
2013-04-20 17:33:00,50.0,21.0,-100.00,NNW,345,8.0,17.0,31,0.00,,,-99.99,,2013-04-20 21:33:00,
2013-04-20 17:43:00,49.0,20.0,-100.00,NNW,345,5.0,9.0,30,0.00,,,-99.99,,2013-04-20 21:43:00,
2013-04-20 17:52:00,48.0,20.0,-100.00,North,350,7.0,22.0,31,0.00,,,-99.99,,2013-04-20 21:52:00,
2013-04-20 18:03:00,48.0,20.0,-100.00,NNW,340,8.0,14.0,32,0.00,,,-99.99,,2013-04-20 22:03:00,
2013-04-20 18:12:00,48.0,20.0,-100.00,NNW,345,8.0,19.0,32,0.00,,,-99.99,,2013-04-20 22:12:00,
2013-04-20 18:22:00,47.0,20.0,-100.00,NNW,340,11.0,22.0,32,0.00,,,-99.99,,2013-04-20 22:22:00,
2013-04-20 18:32:00,47.0,20.0,-100.00,NNW,340,4.0,14.0,33,0.00,,,-99.99,,2013-04-20 22:32:00,
2013-04-20 18:42:00,47.0,20.0,-100.00,North,350,7.0,13.0,33,0.00,,,-99.99,,2013-04-20 22:42:00,
2013-04-20 18:52:00,47.0,20.0,-100.00,North,0,4.0,12.0,34,0.00,,,-99.99,,2013-04-20 22:52:00,
2013-04-20 19:02:00,47.0,19.0,-100.00,North,350,10.0,21.0,32,0.00,,,-99.99,,2013-04-20 23:02:00,
2013-04-20 19:11:00,46.0,17.0,-100.00,North,350,8.0,20.0,30,0.00,,,-99.99,,2013-04-20 23:11:00,
2013-04-20 19:22:00,46.0,17.0,-100.00,NNW,345,5.0,15.0,31,0.00,,,-99.99,,2013-04-20 23:22:00,
2013-04-20 19:32:00,45.0,16.0,-100.00,NNW,345,7.0,17.0,30,0.00,,,-99.99,,2013-04-20 23:32:00,
2013-04-20 19:42:00,45.0,17.0,-100.00,NNW,345,6.0,13.0,31,0.00,,,-99.99,,2013-04-20 23:42:00,
2013-04-20 19:52:00,44.0,18.0,-100.00,NNW,345,6.0,13.0,33,0.00,,,-99.99,,2013-04-20 23:52:00,
2013-04-20 20:01:00,44.0,18.0,-100.00,NNW,340,3.0,11.0,35,0.00,,,-99.99,,2013-04-21 00:01:00,
2013-04-20 20:22:00,43.0,17.0,-100.00,NNW,335,10.0,21.0,34,0.00,,,-99.99,,2013-04-21 00:22:00,
2013-04-20 20:32:00,43.0,16.0,-100.00,NNW,345,10.0,19.0,33,0.00,,,-99.99,,2013-04-21 00:32:00,
2013-04-20 20:42:00,42.0,16.0,-100.00,NNW,340,8.0,19.0,34,0.00,,,-99.99,,2013-04-21 00:42:00,
2013-04-20 20:52:00,42.0,16.0,-100.00,NNW,340,6.0,22.0,35,0.00,,,-99.99,,2013-04-21 00:52:00,
2013-04-20 21:01:00,41.0,16.0,-100.00,North,350,6.0,19.0,34,0.00,,,-99.99,,2013-04-21 01:01:00,
2013-04-20 21:12:00,40.0,21.0,-100.00,NNW,345,2.0,9.0,45,0.00,,,-99.99,,2013-04-21 01:12:00,
2013-04-20 21:21:00,40.0,20.0,-100.00,North,350,3.0,7.0,44,0.00,,,-99.99,,2013-04-21 01:21:00,
2013-04-20 21:32:00,39.0,18.0,-100.00,NNW,345,4.0,7.0,42,0.00,,,-99.99,,2013-04-21 01:32:00,
2013-04-20 21:42:00,39.0,21.0,-100.00,NNW,330,2.0,12.0,46,0.00,,,-99.99,,2013-04-21 01:42:00,
2013-04-20 21:52:00,38.0,20.0,-100.00,NNW,345,3.0,8.0,48,0.00,,,-99.99,,2013-04-21 01:52:00,
2013-04-20 22:02:00,38.0,18.0,-100.00,North,5,6.0,10.0,43,0.00,,,-99.99,,2013-04-21 02:02:00,
2013-04-20 22:11:00,39.0,18.0,-100.00,NNW,345,4.0,17.0,43,0.00,,,-99.99,,2013-04-21 02:11:00,
2013-04-20 22:22:00,38.0,17.0,-100.00,NNW,340,7.0,11.0,41,0.00,,,-99.99,,2013-04-21 02:22:00,
2013-04-20 22:32:00,38.0,18.0,-100.00,North,350,6.0,16.0,44,0.00,,,-99.99,,2013-04-21 02:32:00,
2013-04-20 22:42:00,38.0,18.0,-100.00,NNW,345,4.0,12.0,44,0.00,,,-99.99,,2013-04-21 02:42:00,
2013-04-20 22:52:00,37.0,16.0,-100.00,NNW,340,7.0,16.0,40,0.00,,,-99.99,,2013-04-21 02:52:00,
2013-04-20 23:01:00,37.0,15.0,-100.00,NNW,345,9.0,14.0,40,0.00,,,-99.99,,2013-04-21 03:01:00,
2013-04-20 23:11:00,37.0,16.0,-100.00,NW,325,7.0,14.0,42,0.00,,,-99.99,,2013-04-21 03:11:00,
2013-04-20 23:21:00,36.0,16.0,-100.00,NNW,330,7.0,17.0,43,0.00,,,-99.99,,2013-04-21 03:21:00,
2013-04-20 23:33:00,36.0,17.0,-100.00,NNW,340,7.0,13.0,44,0.00,,,-99.99,,2013-04-21 03:33:00,
2013-04-20 23:42:00,36.0,16.0,-100.00,NNW,340,11.0,14.0,43,0.00,,,-99.99,,2013-04-21 03:42:00,
2013-04-20 23:52:00,36.0,16.0,-100.00,NNW,335,11.0,18.0,43,0.00,,,-99.99,,2013-04-21 03:52:00,